DW3637 Weather Reports


Display with metric or nautical units.
time (UTC)temp
F
wind
direction
speed
MPH
gust
MPH
rain 1hr
in
rain 24hr
in
rain mn
in
humidity
%
barometer
mb
20260902051016 62 0.0 0.0 0.00 1.05 0.00 99 1019.1
20260902050016 62 0.0 0.0 0.00 1.05 0.00 99 1019.1
20260902045017 62 0.0 0.0 0.00 1.05 0.00 99 1019.1
20260902044016 62 0.0 0.0 0.00 1.05 0.00 99 1019.0
20260902043037 61 0.0 0.0 0.00 1.05 0.00 99 1019.0
20260902042017 62 0.0 1.0 0.00 1.05 0.00 99 1019.0
20260902041036 62 0.0 0.0 0.00 1.05 0.00 99 1019.1
20260902040016 61 0.0 1.0 0.00 1.05 1.05 99 1018.6
20260902035038 62 0.0 1.0 0.00 1.05 1.05 99 1018.4
20260902034041 62 0.0 0.0 0.00 1.05 1.05 99 1018.6
20260902033017 62 0.0 0.0 0.00 1.05 1.05 99 1018.4
20260902032020 62 0.0 0.0 0.00 1.05 1.05 99 1018.1
20260902031017 62 0.0 2.0 0.00 1.05 1.05 99 1017.9
20260902030017 62 0.0 1.0 0.02 1.05 1.05 99 1018.0
20260902025016 62 0.0 1.0 0.02 1.05 1.05 99 1018.0
20260902024017 62 0.0 0.0 0.02 1.05 1.05 99 1018.2
20260902023059 62 0.0 0.0 0.02 1.05 1.05 99 1018.1
20260902022017 62 0.0 0.0 0.02 1.05 1.05 99 1018.0
20260902021016 62 0.0 0.0 0.02 1.05 1.05 99 1018.2
20260902020017 62 0.0 0.0 0.00 1.03 1.03 99 1018.1
20260902015042 62 0.0 0.0 0.00 1.03 1.03 99 1018.3
20260902014019 62 0.0 1.0 0.00 1.03 1.03 99 1018.2
20260902013016 62 0.0 2.0 0.00 1.03 1.03 99 1018.2
20260902012036 62 0.0 0.0 0.00 1.03 1.03 99 1017.8
20260902011016 62 0.0 1.0 0.00 1.03 1.03 99 1017.9
20260902010017 62 0.0 0.0 0.00 1.03 1.03 99 1017.7
20260902005017 62 0.0 0.0 0.00 1.03 1.03 99 1017.7
20260902004040 62 0.0 0.0 0.00 1.03 1.03 99 1017.6
20260902003017 62 0.0 0.0 0.00 1.03 1.03 99 1017.6
20260902002016 62 0.0 0.0 0.00 1.03 1.03 99 1017.4
20260902001036 62 0.0 0.0 0.00 1.03 1.03 99 1017.2
20260902000016 62 0.0 0.0 0.00 1.03 1.03 99 1017.3
20260901235036 62 0.0 0.0 0.00 1.03 1.03 99 1017.2
20260901234016 62 0.0 0.0 0.00 1.03 1.03 99 1017.3
20260901233017 62 0.0 0.0 0.00 1.03 1.03 99 1017.4
20260901232021 62 0.0 0.0 0.00 1.03 1.03 99 1017.4
20260901231021 62 0.0 0.0 0.00 1.03 1.03 99 1017.4
20260901230036 62 0.0 0.0 0.00 1.03 1.03 99 1017.3
20260901225027 62 0.0 1.0 0.00 1.03 1.03 99 1017.1
20260901224017 62 0.0 0.0 0.00 1.03 1.03 99 1017.1
20260901223016 62 0.0 0.0 0.01 1.03 1.03 99 1017.0
20260901222057 62 0.0 1.0 0.01 1.03 1.03 98 1016.9
20260901221019 62 0.0 1.0 0.01 1.03 1.03 99 1016.9
20260901220020 62 0.0 1.0 0.01 1.03 1.03 99 1016.9
20260901215041 62 0.0 0.0 0.01 1.03 1.03 99 1017.0
20260901214017 62 0.0 0.0 0.02 1.03 1.03 98 1016.8
20260901213016 62 0.0 2.0 0.01 1.02 1.02 98 1016.7
20260901212020 62 0.0 1.0 0.01 1.02 1.02 98 1016.7
20260901211016 62 0.0 2.0 0.01 1.02 1.02 98 1016.6
20260901210016 62 0.0 3.0 0.01 1.02 1.02 98 1016.6
20260901205016 62 45 1.0 3.0 0.01 1.02 1.02 98 1016.6
20260901204016 62 68 1.0 7.0 0.00 1.01 1.01 98 1016.4
20260901203016 63 45 3.0 8.0 0.00 1.01 1.01 98 1016.3
20260901202018 63 45 2.0 8.0 0.01 1.01 1.01 98 1016.2
20260901201018 64 45 1.0 6.0 0.01 1.01 1.01 98 1016.0
20260901200018 64 135 1.0 4.0 0.01 1.01 1.01 98 1015.8
20260901195026 64 45 2.0 6.0 0.01 1.01 1.01 98 1015.8
20260901194019 66 135 1.0 3.0 0.01 1.01 1.01 98 1015.6
20260901193018 66 45 1.0 4.0 0.01 1.01 1.01 98 1015.5
20260901192041 66 45 1.0 2.0 0.01 1.00 1.00 98 1015.4
20260901191018 66 90 1.0 4.0 0.01 1.00 1.00 98 1015.3
20260901190017 67 0.0 2.0 0.01 1.00 1.00 98 1015.3
20260901185022 67 45 1.0 3.0 0.01 1.00 1.00 98 1015.3
20260901184018 67 68 1.0 3.0 0.01 1.00 1.00 99 1015.3
20260901183041 67 0.0 1.0 0.02 1.00 1.00 99 1015.3
20260901182017 68 0.0 1.0 0.01 0.99 0.99 99 1015.3
20260901181018 67 0.0 1.0 0.01 0.99 0.99 98 1015.3
20260901180017 67 0.0 1.0 0.02 0.99 0.99 98 1015.2
20260901175042 67 0.0 1.0 0.03 0.99 0.99 98 1015.1
20260901174038 67 0.0 1.0 0.12 0.99 0.99 98 1015.0
20260901173017 67 0.0 1.0 0.25 0.98 0.98 98 1015.1
20260901172018 67 0.0 1.0 0.25 0.98 0.98 98 1015.0
20260901171018 67 0.0 0.0 0.25 0.98 0.98 98 1014.9
20260901170037 67 0.0 1.0 0.24 0.97 0.97 98 1015.0
20260901165020 67 248 1.0 5.0 0.23 0.96 0.96 98 1014.5
20260901164017 67 0.0 2.0 0.14 0.87 0.87 98 1014.9
20260901163020 67 0.0 1.0 0.00 0.73 0.73 98 1015.3
20260901162039 67 0.0 1.0 0.00 0.73 0.73 98 1014.8
20260901161024 67 0.0 1.0 0.00 0.73 0.73 98 1014.8
20260901160106 67 0.0 0.0 0.00 0.73 0.73 98 1014.8
20260901155020 67 45 1.0 4.0 0.00 0.73 0.73 98 1014.8
20260901154020 67 45 1.0 3.0 0.00 0.73 0.73 98 1015.0
20260901153019 67 45 1.0 4.0 0.00 0.73 0.73 98 1015.1
20260901152024 67 0.0 1.0 0.00 0.73 0.73 98 1015.3
20260901151022 67 45 1.0 4.0 0.01 0.73 0.73 98 1015.3
20260901150050 67 0.0 1.0 0.01 0.73 0.73 98 1015.3
20260901145040 67 0.0 2.0 0.01 0.73 0.73 98 1015.5
20260901144039 67 45 1.0 5.0 0.01 0.73 0.73 98 1015.6
20260901143019 67 0.0 0.0 0.01 0.73 0.73 98 1015.6
20260901142040 67 0.0 0.0 0.01 0.73 0.73 98 1015.7
20260901141043 66 0.0 1.0 0.01 0.72 0.72 98 1015.8
20260901140021 66 0.0 2.0 0.11 0.72 0.72 98 1015.8
20260901135023 66 0.0 1.0 0.11 0.72 0.72 98 1015.7
20260901134108 66 0.0 4.0 0.12 0.72 0.72 98 1015.7
20260901133023 66 0.0 3.0 0.15 0.72 0.72 98 1015.6
20260901132022 66 0.0 2.0 0.26 0.72 0.72 98 1015.8
20260901131109 66 0.0 2.0 0.26 0.71 0.71 98 1015.7
20260901130019 66 0.0 0.0 0.17 0.61 0.61 98 1016.1
20260901125021 66 0.0 1.0 0.19 0.61 0.61 98 1015.7
20260901124039 66 0.0 2.0 0.21 0.60 0.60 98 1015.6
20260901123017 66 0.0 3.0 0.23 0.57 0.57 98 1015.8
20260901122021 66 0.0 1.0 0.18 0.46 0.46 98 1015.9
20260901121037 66 0.0 0.0 0.22 0.45 0.45 98 1015.4
20260901120017 66 0.0 0.0 0.34 0.44 0.44 97 1015.4
20260901115017 66 0.0 1.0 0.34 0.42 0.42 97 1015.4
20260901114019 66 0.0 2.0 0.32 0.39 0.39 97 1015.7
20260901113017 66 0.0 0.0 0.28 0.34 0.34 96 1015.9
20260901112018 67 0.0 1.0 0.22 0.28 0.28 96 1015.9
20260901111017 66 0.0 1.0 0.17 0.23 0.23 96 1015.9
20260901110017 66 0.0 0.0 0.04 0.11 0.10 96 1015.8
20260901105017 66 0.0 0.0 0.02 0.09 0.08 96 1015.6
20260901104037 67 0.0 0.0 0.01 0.08 0.07 96 1015.5
20260901103016 67 0.0 0.0 0.00 0.07 0.06 96 1015.5
20260901102018 67 0.0 0.0 0.01 0.07 0.06 96 1015.5
20260901101017 67 0.0 1.0 0.02 0.07 0.06 95 1015.3
20260901100017 67 0.0 3.0 0.02 0.07 0.06 95 1015.2
20260901095017 67 0.0 0.0 0.03 0.07 0.06 95 1015.4
20260901094037 67 0.0 0.0 0.04 0.07 0.06 95 1015.5
20260901093017 67 0.0 0.0 0.06 0.07 0.06 95 1015.6
20260901092019 67 0.0 0.0 0.05 0.06 0.05 95 1015.7
20260901091017 67 0.0 0.0 0.04 0.05 0.04 94 1015.7
20260901090017 67 0.0 0.0 0.04 0.05 0.04 94 1015.8
20260901085017 67 0.0 0.0 0.03 0.04 0.03 93 1015.7
20260901084028 67 0.0 0.0 0.02 0.03 0.02 93 1015.8
20260901083026 68 0.0 0.0 0.00 0.01 0.00 93 1015.9
20260901082026 68 0.0 0.0 0.00 0.01 0.00 92 1015.9
20260901081032 68 0.0 0.0 0.00 0.01 0.00 92 1015.9
20260901080038 68 0.0 0.0 0.00 0.01 0.00 92 1015.8
20260901075031 68 0.0 0.0 0.00 0.01 0.00 91 1016.0
20260901074037 69 0.0 0.0 0.00 0.01 0.00 91 1016.1
20260901073049 69 0.0 0.0 0.00 0.01 0.00 91 1016.3
20260901072028 69 0.0 0.0 0.00 0.01 0.00 92 1016.3
20260901071038 68 0.0 0.0 0.00 0.01 0.00 92 1016.4
20260901070106 68 0.0 0.0 0.00 0.01 0.00 92 1016.5
20260901065114 68 0.0 0.0 0.00 0.01 0.00 92 1016.6
20260901064033 68 0.0 1.0 0.00 0.01 0.00 92 1016.6
20260901063035 68 0.0 0.0 0.00 0.01 0.00 92 1016.6
20260901062031 68 0.0 0.0 0.00 0.01 0.00 92 1016.6
20260901061042 68 0.0 0.0 0.00 0.01 0.00 92 1016.6
20260901060023 68 0.0 0.0 0.00 0.01 0.00 92 1016.5
20260901055044 68 0.0 0.0 0.00 0.01 0.00 91 1016.7
20260901054042 69 0.0 0.0 0.00 0.01 0.00 90 1017.0
20260901053026 69 0.0 1.0 0.00 0.01 0.00 89 1017.0
20260901052034 70 0.0 2.0 0.00 0.01 0.00 85 1017.2